{"data":{"norad_id":62073,"epoch":"2026-05-25T04:13:31.943424Z","epoch_age_seconds":59070,"freshness":"FRESH","line1":"1 62073U 24217S   26145.17606416  .00015965  00000+0  48251-3 0  9991","line2":"2 62073  53.1588 198.5103 0001390  90.9308 269.1854 15.34408859 85138","mean_motion":15.34408859,"eccentricity":0.000139,"inclination_deg":53.1588,"raan_deg":198.5103,"arg_perigee_deg":90.9308,"mean_anomaly_deg":269.1854,"bstar":0.00048251,"rev_number":8513,"period_min":93.847216245771,"perigee_km":461.72603638542,"apogee_km":463.62778265226,"semimajor_km":6840.8139095188,"source":"CELESTRAK","updated_at":"2026-05-25T13:38:19.555280Z"}}